LNR57EU LFPG-LPMA

Flight info

Callsign LNR57EU
Flight time 3h 22m
Altitude 33000
Route LGL UT176 TERPO/N0459F350 UN872 ERIGA UN741 AZFIC DCT LOTEE DCT AGADO DCT ASMAR DCT VERAM DCT LIDRO
Aircraft B738/M-SDE2E3FGHIRWXY/LB1

Departure

Time 2026-05-08 16:27
Airport Charles de Gaulle International Airport (LFPG)

Arrival

Time 2026-05-08 19:50
Airport Cristiano Ronaldo International Airport (LPMA)
Time Latitude Longitude Altitude Speed Heading
2026-05-08 16:01 49.00152 2.57819 353 ft 0 kts 355°
2026-05-08 16:13 49.00151 2.57819 353 ft 0 kts 355°
2026-05-08 16:15 49.00147 2.57820 353 ft 4 kts 355°
2026-05-08 16:16 49.00120 2.57824 353 ft 4 kts 354°
2026-05-08 16:16 49.00094 2.57831 357 ft 4 kts 336°
2026-05-08 16:16 49.00074 2.57853 361 ft 4 kts 296°
2026-05-08 16:16 49.00069 2.57875 363 ft 0 kts 265°
2026-05-08 16:21 49.00069 2.57870 359 ft 2 kts 265°
2026-05-08 16:21 49.00067 2.57837 363 ft 5 kts 265°
2026-05-08 16:22 49.00063 2.57767 359 ft 8 kts 264°
2026-05-08 16:22 49.00014 2.57731 353 ft 9 kts 196°
2026-05-08 16:22 48.99976 2.57653 358 ft 11 kts 266°
2026-05-08 16:22 48.99969 2.57525 353 ft 13 kts 266°
2026-05-08 16:23 48.99960 2.57373 357 ft 16 kts 264°
2026-05-08 16:23 48.99951 2.57194 353 ft 18 kts 265°
2026-05-08 16:23 48.99940 2.56998 353 ft 19 kts 265°
2026-05-08 16:23 48.99930 2.56805 362 ft 18 kts 266°
2026-05-08 16:24 48.99920 2.56619 353 ft 17 kts 265°
2026-05-08 16:24 48.99911 2.56442 359 ft 17 kts 265°
2026-05-08 16:24 48.99902 2.56269 358 ft 16 kts 265°
2026-05-08 16:24 48.99894 2.56103 353 ft 15 kts 266°
2026-05-08 16:25 48.99824 2.56000 355 ft 15 kts 218°
2026-05-08 16:25 48.99783 2.55862 360 ft 14 kts 249°
2026-05-08 16:25 48.99700 2.55810 353 ft 14 kts 181°
2026-05-08 16:25 48.99611 2.55830 355 ft 13 kts 144°
2026-05-08 16:26 48.99604 2.55926 352 ft 0 kts 84°
2026-05-08 16:26 48.99606 2.55950 353 ft 17 kts 84°
2026-05-08 16:26 48.99635 2.56494 354 ft 85 kts 85°
2026-05-08 16:26 48.99698 2.57703 359 ft 142 kts 85°
2026-05-08 16:27 48.99800 2.59431 511 ft 177 kts 85°
2026-05-08 16:27 48.99886 2.61277 1289 ft 177 kts 84°
2026-05-08 16:27 48.99990 2.63146 2084 ft 178 kts 84°
2026-05-08 16:27 49.00111 2.65089 2599 ft 195 kts 84°
2026-05-08 16:28 49.00216 2.67293 2814 ft 218 kts 85°
2026-05-08 16:28 49.00323 2.69673 3122 ft 233 kts 86°
2026-05-08 16:28 49.00427 2.72101 3704 ft 231 kts 85°
2026-05-08 16:28 49.00566 2.74588 4130 ft 239 kts 85°
2026-05-08 16:29 49.00707 2.77151 4577 ft 243 kts 85°
2026-05-08 16:29 49.00625 2.79730 5079 ft 246 kts 98°
2026-05-08 16:29 49.00327 2.82327 5594 ft 249 kts 100°
2026-05-08 16:29 49.00015 2.84960 5874 ft 264 kts 100°
2026-05-08 16:30 48.99699 2.87780 6358 ft 274 kts 99°
2026-05-08 16:30 48.99391 2.90652 7095 ft 276 kts 99°
2026-05-08 16:30 48.99081 2.93586 7742 ft 282 kts 99°
2026-05-08 16:30 48.98747 2.96541 8446 ft 285 kts 106°
2026-05-08 16:31 48.97796 2.99158 9132 ft 285 kts 137°
2026-05-08 16:31 48.96135 3.00736 9840 ft 283 kts 165°
2026-05-08 16:31 48.94215 3.01056 10368 ft 288 kts 188°
2026-05-08 16:31 48.92265 3.00080 10538 ft 306 kts 212°
2026-05-08 16:32 48.90609 2.97851 10714 ft 326 kts 232°
2026-05-08 16:32 48.89467 2.94819 10868 ft 345 kts 249°
2026-05-08 16:32 48.88778 2.91227 11040 ft 362 kts 256°
2026-05-08 16:32 48.88223 2.87435 11471 ft 371 kts 257°
2026-05-08 16:33 48.87674 2.83591 12101 ft 373 kts 257°
2026-05-08 16:33 48.87093 2.79746 12788 ft 375 kts 256°
2026-05-08 16:33 48.86474 2.75890 13440 ft 378 kts 255°
2026-05-08 16:33 48.85823 2.72009 14067 ft 381 kts 255°
2026-05-08 16:34 48.85159 2.68147 14659 ft 384 kts 255°
2026-05-08 16:34 48.84471 2.64198 15282 ft 387 kts 255°
2026-05-08 16:34 48.83776 2.60241 15858 ft 391 kts 255°
2026-05-08 16:34 48.83070 2.56224 16386 ft 395 kts 255°
2026-05-08 16:35 48.82347 2.52120 17014 ft 398 kts 255°
2026-05-08 16:35 48.81647 2.48150 17619 ft 400 kts 255°
2026-05-08 16:35 48.80926 2.44073 18211 ft 403 kts 255°
2026-05-08 16:35 48.80208 2.39923 18719 ft 406 kts 258°
2026-05-08 16:36 48.79936 2.35653 19217 ft 407 kts 270°
2026-05-08 16:36 48.79962 2.31357 19784 ft 408 kts 271°
2026-05-08 16:36 48.80016 2.27045 20306 ft 409 kts 272°
2026-05-08 16:36 48.80067 2.22757 20816 ft 411 kts 272°
2026-05-08 16:37 48.80105 2.18392 21314 ft 413 kts 272°
2026-05-08 16:37 48.80129 2.14028 21719 ft 416 kts 272°
2026-05-08 16:37 48.80142 2.09607 22146 ft 419 kts 272°
2026-05-08 16:37 48.80146 2.05233 22605 ft 421 kts 272°
2026-05-08 16:38 48.80146 2.00788 23058 ft 423 kts 272°
2026-05-08 16:38 48.80142 1.96574 23471 ft 424 kts 273°
2026-05-08 16:38 48.80136 1.92080 23831 ft 427 kts 272°
2026-05-08 16:38 48.80128 1.87577 24162 ft 429 kts 272°
2026-05-08 16:39 48.80118 1.83043 24505 ft 430 kts 272°
2026-05-08 16:39 48.80107 1.78489 24838 ft 432 kts 272°
2026-05-08 16:39 48.80094 1.73915 25148 ft 434 kts 272°
2026-05-08 16:39 48.80079 1.69296 25258 ft 442 kts 272°
2026-05-08 16:40 48.80063 1.64613 25505 ft 445 kts 272°
2026-05-08 16:40 48.80044 1.59910 25902 ft 445 kts 272°
2026-05-08 16:40 48.80022 1.55210 26276 ft 445 kts 272°
2026-05-08 16:40 48.80000 1.50571 26564 ft 447 kts 271°
2026-05-08 16:41 48.79975 1.45839 26833 ft 449 kts 271°
2026-05-08 16:41 48.79948 1.41096 27185 ft 449 kts 271°
2026-05-08 16:41 48.79919 1.36370 27662 ft 446 kts 271°
2026-05-08 16:42 48.79856 1.26997 28561 ft 443 kts 271°
2026-05-08 16:42 48.79822 1.22313 28863 ft 444 kts 271°
2026-05-08 16:42 48.79786 1.17643 29273 ft 443 kts 271°
2026-05-08 16:42 48.79749 1.12985 29792 ft 440 kts 271°
2026-05-08 16:43 48.79710 1.08357 30259 ft 437 kts 271°
2026-05-08 16:43 48.79669 1.03747 30607 ft 436 kts 271°
2026-05-08 16:43 48.79630 0.99470 30892 ft 436 kts 271°
2026-05-08 16:43 48.79586 0.94878 31221 ft 435 kts 271°
2026-05-08 16:44 48.79540 0.90294 31576 ft 433 kts 271°
2026-05-08 16:44 48.79492 0.85733 31924 ft 432 kts 270°
2026-05-08 16:44 48.79443 0.81169 32202 ft 432 kts 270°
2026-05-08 16:44 48.79392 0.76615 32493 ft 432 kts 270°
2026-05-08 16:45 48.79340 0.72062 32842 ft 430 kts 270°
2026-05-08 16:45 48.79286 0.67531 33198 ft 429 kts 270°
2026-05-08 16:45 48.79231 0.63012 33509 ft 428 kts 270°
2026-05-08 16:45 48.79169 0.58497 33806 ft 428 kts 269°
2026-05-08 16:46 48.78659 0.54046 34047 ft 432 kts 253°
2026-05-08 16:46 48.77375 0.49909 34307 ft 436 kts 239°
2026-05-08 16:46 48.76167 0.47468 34497 ft 438 kts 233°
2026-05-08 16:46 48.73529 0.42836 34852 ft 437 kts 231°
2026-05-08 16:47 48.71519 0.39394 35100 ft 436 kts 231°
2026-05-08 16:47 48.69514 0.35943 35379 ft 434 kts 231°
2026-05-08 16:47 48.68202 0.33663 35572 ft 433 kts 232°
2026-05-08 16:47 48.66239 0.30223 35842 ft 432 kts 232°
2026-05-08 16:48 48.64283 0.26775 36006 ft 432 kts 231°
2026-05-08 16:48 48.60355 0.19843 36015 ft 433 kts 231°
2026-05-08 16:49 48.56437 0.12943 36000 ft 430 kts 232°
2026-05-08 16:49 48.52601 0.06120 36004 ft 427 kts 232°
2026-05-08 16:50 48.48857 -0.00536 36006 ft 425 kts 232°
2026-05-08 16:50 48.45031 -0.07315 36002 ft 425 kts 231°
2026-05-08 16:51 48.41193 -0.14094 35998 ft 425 kts 231°
2026-05-08 16:51 48.37348 -0.20871 35999 ft 426 kts 231°
2026-05-08 16:52 48.33481 -0.27648 36000 ft 428 kts 230°
2026-05-08 16:52 48.29560 -0.34416 35994 ft 430 kts 230°
2026-05-08 16:53 48.23637 -0.44592 35987 ft 432 kts 230°
2026-05-08 16:53 48.19674 -0.51391 35973 ft 433 kts 230°
2026-05-08 16:54 48.15729 -0.58145 35974 ft 433 kts 230°
2026-05-08 16:54 48.11756 -0.64931 35968 ft 433 kts 230°
2026-05-08 16:55 48.07772 -0.71720 35966 ft 433 kts 230°
2026-05-08 16:55 48.03792 -0.78482 35966 ft 432 kts 230°
2026-05-08 16:56 47.99853 -0.85161 35970 ft 432 kts 229°
2026-05-08 16:56 47.95881 -0.91877 35965 ft 431 kts 229°
2026-05-08 16:57 47.91910 -0.98573 35974 ft 430 kts 229°
2026-05-08 16:57 47.88051 -1.05066 35969 ft 429 kts 229°
2026-05-08 16:58 47.84088 -1.11716 35974 ft 429 kts 229°
2026-05-08 16:58 47.80119 -1.18361 35968 ft 429 kts 229°
2026-05-08 16:59 47.76153 -1.24985 35958 ft 428 kts 228°
2026-05-08 16:59 47.72185 -1.31596 35972 ft 429 kts 228°
2026-05-08 17:00 47.68239 -1.38152 35972 ft 429 kts 228°
2026-05-08 17:00 47.64250 -1.44768 35959 ft 430 kts 228°
2026-05-08 17:01 47.60251 -1.51383 35955 ft 431 kts 228°
2026-05-08 17:01 47.56236 -1.57998 35945 ft 431 kts 227°
2026-05-08 17:02 47.52236 -1.64571 35949 ft 432 kts 227°
2026-05-08 17:02 47.48209 -1.71176 35954 ft 433 kts 227°
2026-05-08 17:03 47.44158 -1.77806 35944 ft 435 kts 227°
2026-05-08 17:03 47.40095 -1.84441 35931 ft 436 kts 227°
2026-05-08 17:04 47.36014 -1.91044 35933 ft 436 kts 224°
2026-05-08 17:04 47.31190 -1.96392 35942 ft 434 kts 211°
2026-05-08 17:05 47.26172 -2.00782 35936 ft 435 kts 210°
2026-05-08 17:05 47.21077 -2.05264 35942 ft 435 kts 211°
2026-05-08 17:06 47.16674 -2.09173 35946 ft 436 kts 211°
2026-05-08 17:06 47.11750 -2.13551 35935 ft 436 kts 210°
2026-05-08 17:07 47.06954 -2.17808 35927 ft 435 kts 210°
2026-05-08 17:07 47.02461 -2.21788 35929 ft 435 kts 210°
2026-05-08 17:08 46.98116 -2.25628 35930 ft 434 kts 210°
2026-05-08 17:08 46.93908 -2.29341 35920 ft 434 kts 209°
2026-05-08 17:09 46.89601 -2.33151 35921 ft 434 kts 211°
2026-05-08 17:09 46.86206 -2.37299 35934 ft 438 kts 224°
2026-05-08 17:10 46.83879 -2.41535 35914 ft 441 kts 237°
2026-05-08 17:10 46.82148 -2.46129 35974 ft 442 kts 238°
2026-05-08 17:11 46.80519 -2.50341 35967 ft 439 kts 230°
2026-05-08 17:11 46.79439 -2.52329 35424 ft 447 kts 234°
2026-05-08 17:11 46.78707 -2.54817 33296 ft 449 kts 259°
2026-05-08 17:12 46.78904 -2.57659 28733 ft 506 kts 296°
2026-05-08 17:12 46.79873 -2.59875 25208 ft 447 kts 310°
2026-05-08 17:12 46.81317 -2.62354 25000 ft 438 kts 302°
2026-05-08 17:12 46.82330 -2.65331 25111 ft 417 kts 283°
2026-05-08 17:13 46.82662 -2.68592 25317 ft 406 kts 264°
2026-05-08 17:13 46.82247 -2.71925 25508 ft 396 kts 244°
2026-05-08 17:13 46.80993 -2.74988 25737 ft 387 kts 223°
2026-05-08 17:13 46.79260 -2.76982 25945 ft 380 kts 204°
2026-05-08 17:14 46.77151 -2.78272 26198 ft 377 kts 196°
2026-05-08 17:14 46.75215 -2.79204 26399 ft 378 kts 195°
2026-05-08 17:14 46.73233 -2.80228 26580 ft 380 kts 198°
2026-05-08 17:14 46.71174 -2.81473 26808 ft 382 kts 202°
2026-05-08 17:15 46.69151 -2.83131 27017 ft 387 kts 212°
2026-05-08 17:15 46.67348 -2.85330 27256 ft 392 kts 222°
2026-05-08 17:15 46.65859 -2.87843 27482 ft 396 kts 229°
2026-05-08 17:15 46.64467 -2.90746 27719 ft 399 kts 233°
2026-05-08 17:16 46.63189 -2.93750 27951 ft 401 kts 235°
2026-05-08 17:16 46.61957 -2.96815 28192 ft 403 kts 236°
2026-05-08 17:16 46.60747 -2.99876 28412 ft 404 kts 236°
2026-05-08 17:16 46.59524 -3.02959 28650 ft 406 kts 236°
2026-05-08 17:17 46.58186 -3.06303 28910 ft 407 kts 236°
2026-05-08 17:17 46.56807 -3.09506 29152 ft 406 kts 230°
2026-05-08 17:17 46.55452 -3.11878 29359 ft 404 kts 223°
2026-05-08 17:17 46.53751 -3.14438 29614 ft 405 kts 222°
2026-05-08 17:18 46.52043 -3.16971 29860 ft 407 kts 221°
2026-05-08 17:18 46.50272 -3.19591 30091 ft 409 kts 221°
2026-05-08 17:18 46.48525 -3.22180 30315 ft 411 kts 221°
2026-05-08 17:18 46.46816 -3.24720 30520 ft 413 kts 221°
2026-05-08 17:19 46.45062 -3.27335 30743 ft 415 kts 221°
2026-05-08 17:19 46.43302 -3.29964 30955 ft 417 kts 221°
2026-05-08 17:19 46.41576 -3.32544 31168 ft 419 kts 221°
2026-05-08 17:19 46.39863 -3.35108 31382 ft 420 kts 221°
2026-05-08 17:20 46.38099 -3.37747 31596 ft 421 kts 221°
2026-05-08 17:20 46.36262 -3.40493 31824 ft 423 kts 221°
2026-05-08 17:20 46.34491 -3.43140 32048 ft 424 kts 221°
2026-05-08 17:20 46.32467 -3.46160 32303 ft 425 kts 221°
2026-05-08 17:21 46.30406 -3.49235 32566 ft 426 kts 221°
2026-05-08 17:21 46.28365 -3.52275 32823 ft 427 kts 221°
2026-05-08 17:21 46.26291 -3.55359 33077 ft 428 kts 221°
2026-05-08 17:21 46.24217 -3.58440 33350 ft 428 kts 221°
2026-05-08 17:22 46.22134 -3.61532 33652 ft 429 kts 221°
2026-05-08 17:22 46.20080 -3.64574 33917 ft 429 kts 221°
2026-05-08 17:22 46.18003 -3.67650 34147 ft 429 kts 221°
2026-05-08 17:22 46.15912 -3.70741 34386 ft 429 kts 221°
2026-05-08 17:23 46.13828 -3.73819 34622 ft 429 kts 221°
2026-05-08 17:23 46.11740 -3.76899 34864 ft 429 kts 221°
2026-05-08 17:23 46.09655 -3.79972 35107 ft 429 kts 221°
2026-05-08 17:23 46.07568 -3.83044 35352 ft 429 kts 221°
2026-05-08 17:24 46.05478 -3.86116 35578 ft 429 kts 221°
2026-05-08 17:24 46.03389 -3.89183 35729 ft 431 kts 221°
2026-05-08 17:24 45.99161 -3.95374 35861 ft 438 kts 221°
2026-05-08 17:25 45.94947 -4.01532 35898 ft 448 kts 221°
2026-05-08 17:25 45.90558 -4.07937 35873 ft 450 kts 221°
2026-05-08 17:26 45.86166 -4.14334 35883 ft 450 kts 221°
2026-05-08 17:26 45.81771 -4.20717 35880 ft 450 kts 221°
2026-05-08 17:27 45.77420 -4.27021 35881 ft 449 kts 221°
2026-05-08 17:27 45.73032 -4.33362 35880 ft 448 kts 221°
2026-05-08 17:28 45.68641 -4.39692 35876 ft 448 kts 221°
2026-05-08 17:28 45.64383 -4.45816 35874 ft 447 kts 221°
2026-05-08 17:29 45.59990 -4.52119 35877 ft 447 kts 221°
2026-05-08 17:29 45.55607 -4.58394 35875 ft 446 kts 220°
2026-05-08 17:30 45.51261 -4.64601 35879 ft 445 kts 220°
2026-05-08 17:30 45.46879 -4.70845 35892 ft 446 kts 220°
2026-05-08 17:31 45.42516 -4.77047 35882 ft 446 kts 220°
2026-05-08 17:31 45.38110 -4.83295 35876 ft 446 kts 220°
2026-05-08 17:32 45.33736 -4.89485 35878 ft 446 kts 220°
2026-05-08 17:32 45.29329 -4.95706 35877 ft 446 kts 220°
2026-05-08 17:33 45.25036 -5.01752 35903 ft 447 kts 220°
2026-05-08 17:33 45.20615 -5.07965 35883 ft 447 kts 220°
2026-05-08 17:34 45.16183 -5.14179 35879 ft 448 kts 220°
2026-05-08 17:34 45.11750 -5.20380 35879 ft 448 kts 220°
2026-05-08 17:35 45.07341 -5.26533 35877 ft 448 kts 220°
2026-05-08 17:35 45.02895 -5.32725 35878 ft 448 kts 220°
2026-05-08 17:36 44.98462 -5.38884 35890 ft 448 kts 220°
2026-05-08 17:36 44.94009 -5.45056 35885 ft 448 kts 220°
2026-05-08 17:37 44.89559 -5.51209 35872 ft 448 kts 220°
2026-05-08 17:37 44.85136 -5.57312 35881 ft 447 kts 221°
2026-05-08 17:38 44.80690 -5.63432 35878 ft 447 kts 221°
2026-05-08 17:38 44.76241 -5.69545 35879 ft 446 kts 220°
2026-05-08 17:39 44.71793 -5.75641 35885 ft 445 kts 221°
2026-05-08 17:39 44.67348 -5.81720 35881 ft 445 kts 221°
2026-05-08 17:40 44.62808 -5.87517 35882 ft 442 kts 217°
2026-05-08 17:40 44.58078 -5.93027 35880 ft 442 kts 216°
2026-05-08 17:41 44.53329 -5.98513 35880 ft 441 kts 216°
2026-05-08 17:41 44.48708 -6.03887 35879 ft 441 kts 216°
2026-05-08 17:42 44.43992 -6.09390 35907 ft 441 kts 217°
2026-05-08 17:42 44.39275 -6.14893 35888 ft 442 kts 217°
2026-05-08 17:43 44.34579 -6.20359 35881 ft 442 kts 217°
2026-05-08 17:43 44.29848 -6.25854 35883 ft 442 kts 217°
2026-05-08 17:44 44.25113 -6.31341 35884 ft 442 kts 217°
2026-05-08 17:44 44.20383 -6.36810 35888 ft 441 kts 218°
2026-05-08 17:45 44.15655 -6.42264 35885 ft 441 kts 217°
2026-05-08 17:45 44.10956 -6.47674 35909 ft 440 kts 218°
2026-05-08 17:46 44.06229 -6.53104 35891 ft 440 kts 218°
2026-05-08 17:46 44.01494 -6.58531 35890 ft 440 kts 218°
2026-05-08 17:47 43.96783 -6.63921 35886 ft 439 kts 218°
2026-05-08 17:47 43.92858 -6.68402 35885 ft 439 kts 218°
2026-05-08 17:48 43.87341 -6.74687 35882 ft 439 kts 218°
2026-05-08 17:48 43.82651 -6.80018 35879 ft 438 kts 218°
2026-05-08 17:49 43.77935 -6.85367 35897 ft 438 kts 218°
2026-05-08 17:49 43.73216 -6.90708 35888 ft 438 kts 218°
2026-05-08 17:50 43.68490 -6.96046 35879 ft 438 kts 218°
2026-05-08 17:50 43.63898 -7.01221 35878 ft 439 kts 218°
2026-05-08 17:51 43.59166 -7.06544 35880 ft 438 kts 218°
2026-05-08 17:51 43.54434 -7.11855 35880 ft 439 kts 218°
2026-05-08 17:52 43.49726 -7.17129 35868 ft 438 kts 218°
2026-05-08 17:53 43.42620 -7.25068 35880 ft 438 kts 218°
2026-05-08 17:53 43.37878 -7.30352 35880 ft 438 kts 218°
2026-05-08 17:54 43.33942 -7.34730 35863 ft 438 kts 218°
2026-05-08 17:54 43.29206 -7.39988 35865 ft 437 kts 218°
2026-05-08 17:55 43.23712 -7.46073 35860 ft 436 kts 218°
2026-05-08 17:55 43.19755 -7.50446 35860 ft 436 kts 218°
2026-05-08 17:56 43.15039 -7.55649 35857 ft 435 kts 218°
2026-05-08 17:56 43.10357 -7.60804 35868 ft 433 kts 218°
2026-05-08 17:57 43.05658 -7.65967 35851 ft 432 kts 218°
2026-05-08 17:57 43.00966 -7.71112 35856 ft 431 kts 218°
2026-05-08 17:58 42.96297 -7.76222 35852 ft 430 kts 218°
2026-05-08 17:58 42.91654 -7.81293 35852 ft 430 kts 218°
2026-05-08 17:59 42.86977 -7.86391 35854 ft 430 kts 218°
2026-05-08 17:59 42.82306 -7.91472 35849 ft 430 kts 218°
2026-05-08 18:00 42.77623 -7.96557 35845 ft 430 kts 218°
2026-05-08 18:00 42.70725 -8.04027 35841 ft 430 kts 219°
2026-05-08 18:01 42.66031 -8.09099 35848 ft 431 kts 219°
2026-05-08 18:01 42.61352 -8.14144 35844 ft 432 kts 219°
2026-05-08 18:02 42.56631 -8.19224 35841 ft 433 kts 219°
2026-05-08 18:02 42.51901 -8.24304 35843 ft 434 kts 219°
2026-05-08 18:03 42.47162 -8.29384 35844 ft 434 kts 219°
2026-05-08 18:03 42.42443 -8.34431 35860 ft 434 kts 218°
2026-05-08 18:04 42.37693 -8.39502 35850 ft 435 kts 218°
2026-05-08 18:04 42.32944 -8.44562 35848 ft 435 kts 218°
2026-05-08 18:05 42.28187 -8.49621 35858 ft 433 kts 219°
2026-05-08 18:05 42.23453 -8.54645 35851 ft 432 kts 219°
2026-05-08 18:06 42.18732 -8.59646 35841 ft 431 kts 219°
2026-05-08 18:06 42.14016 -8.64631 35825 ft 430 kts 219°
2026-05-08 18:07 42.09307 -8.69600 35829 ft 429 kts 219°
2026-05-08 18:07 42.04639 -8.74516 35842 ft 427 kts 218°
2026-05-08 18:08 41.99973 -8.79421 35828 ft 426 kts 218°
2026-05-08 18:08 41.95309 -8.84314 35821 ft 424 kts 218°
2026-05-08 18:09 41.90665 -8.89180 35829 ft 423 kts 218°
2026-05-08 18:09 41.86039 -8.94040 35826 ft 421 kts 219°
2026-05-08 18:10 41.81555 -8.99032 35827 ft 420 kts 220°
2026-05-08 18:10 41.77402 -9.03729 35826 ft 419 kts 220°
2026-05-08 18:11 41.73078 -9.08593 35824 ft 418 kts 220°
2026-05-08 18:11 41.68697 -9.13489 35831 ft 418 kts 219°
2026-05-08 18:12 41.64293 -9.18393 35825 ft 418 kts 219°
2026-05-08 18:12 41.59930 -9.23240 35824 ft 419 kts 219°
2026-05-08 18:13 41.55466 -9.28188 35817 ft 420 kts 219°
2026-05-08 18:13 41.51006 -9.33124 35819 ft 420 kts 219°
2026-05-08 18:14 41.46499 -9.38104 35820 ft 421 kts 219°
2026-05-08 18:14 41.42021 -9.43042 35808 ft 422 kts 219°
2026-05-08 18:15 41.37491 -9.48028 35812 ft 422 kts 219°
2026-05-08 18:15 41.32960 -9.53005 35808 ft 422 kts 219°
2026-05-08 18:16 41.28448 -9.57953 35804 ft 422 kts 219°
2026-05-08 18:16 41.23908 -9.62922 35804 ft 422 kts 219°
2026-05-08 18:17 41.19380 -9.67868 35805 ft 422 kts 219°
2026-05-08 18:17 41.14869 -9.72788 35795 ft 422 kts 219°
2026-05-08 18:18 41.10336 -9.77722 35796 ft 421 kts 219°
2026-05-08 18:18 41.05800 -9.82650 35801 ft 421 kts 219°
2026-05-08 18:19 41.01282 -9.87550 35800 ft 422 kts 218°
2026-05-08 18:19 40.96739 -9.92467 35792 ft 422 kts 218°
2026-05-08 18:20 40.92205 -9.97366 35794 ft 423 kts 218°
2026-05-08 18:20 40.87750 -10.02171 35784 ft 423 kts 218°
2026-05-08 18:21 40.83185 -10.07086 35786 ft 423 kts 218°
2026-05-08 18:21 40.78614 -10.11998 35783 ft 423 kts 218°
2026-05-08 18:22 40.74050 -10.16894 35782 ft 423 kts 218°
2026-05-08 18:22 40.69508 -10.21756 35797 ft 423 kts 218°
2026-05-08 18:23 40.64931 -10.26648 35783 ft 424 kts 218°
2026-05-08 18:23 40.60350 -10.31535 35773 ft 424 kts 218°
2026-05-08 18:24 40.55785 -10.36396 35773 ft 425 kts 218°
2026-05-08 18:24 40.51186 -10.41284 35768 ft 425 kts 218°
2026-05-08 18:25 40.46585 -10.46166 35765 ft 425 kts 218°
2026-05-08 18:25 40.41978 -10.51045 35763 ft 425 kts 218°
2026-05-08 18:26 40.37368 -10.55919 35761 ft 425 kts 218°
2026-05-08 18:26 40.32807 -10.60732 35753 ft 425 kts 218°
2026-05-08 18:27 40.28962 -10.64782 35756 ft 425 kts 218°
2026-05-08 18:27 40.23597 -10.70425 35750 ft 425 kts 218°
2026-05-08 18:28 40.18992 -10.75258 35748 ft 425 kts 218°
2026-05-08 18:28 40.14398 -10.80071 35747 ft 425 kts 218°
2026-05-08 18:29 40.09782 -10.84898 35748 ft 425 kts 218°
2026-05-08 18:29 40.05190 -10.89693 35737 ft 425 kts 218°
2026-05-08 18:30 40.00571 -10.94506 35765 ft 425 kts 218°
2026-05-08 18:30 39.95970 -10.99293 35750 ft 425 kts 218°
2026-05-08 18:31 39.91489 -11.03946 35736 ft 425 kts 217°
2026-05-08 18:31 39.86864 -11.08740 35729 ft 425 kts 217°
2026-05-08 18:32 39.82236 -11.13530 35726 ft 424 kts 217°
2026-05-08 18:32 39.77638 -11.18279 35720 ft 424 kts 217°
2026-05-08 18:33 39.73021 -11.23040 35718 ft 424 kts 217°
2026-05-08 18:33 39.68395 -11.27802 35722 ft 423 kts 217°
2026-05-08 18:34 39.63792 -11.32532 35726 ft 422 kts 217°
2026-05-08 18:34 39.59202 -11.37240 35714 ft 422 kts 217°
2026-05-08 18:35 39.54592 -11.41961 35709 ft 423 kts 217°
2026-05-08 18:35 39.49970 -11.46686 35709 ft 423 kts 217°
2026-05-08 18:36 39.45346 -11.51405 35709 ft 424 kts 217°
2026-05-08 18:36 39.40717 -11.56123 35707 ft 424 kts 217°
2026-05-08 18:37 39.36018 -11.60747 35695 ft 424 kts 212°
2026-05-08 18:37 39.31066 -11.64881 35697 ft 424 kts 211°
2026-05-08 18:38 39.26082 -11.68975 35699 ft 424 kts 212°
2026-05-08 18:38 39.21135 -11.73056 35689 ft 425 kts 212°
2026-05-08 18:39 39.16165 -11.77169 35690 ft 425 kts 212°
2026-05-08 18:39 39.11187 -11.81291 35690 ft 425 kts 212°
2026-05-08 18:40 39.06222 -11.85396 35686 ft 425 kts 212°
2026-05-08 18:40 39.01246 -11.89503 35687 ft 425 kts 212°
2026-05-08 18:41 38.96281 -11.93593 35676 ft 425 kts 212°
2026-05-08 18:41 38.91325 -11.97670 35680 ft 425 kts 212°
2026-05-08 18:42 38.86474 -12.01652 35679 ft 425 kts 212°
2026-05-08 18:42 38.82327 -12.05053 35691 ft 426 kts 212°
2026-05-08 18:43 38.76509 -12.09814 35682 ft 427 kts 212°
2026-05-08 18:43 38.71484 -12.13919 35674 ft 428 kts 212°
2026-05-08 18:44 38.67272 -12.17355 35676 ft 429 kts 212°
2026-05-08 18:44 38.62250 -12.21445 35670 ft 430 kts 212°
2026-05-08 18:45 38.57203 -12.25548 35671 ft 430 kts 212°
2026-05-08 18:45 38.52139 -12.29659 35675 ft 431 kts 212°
2026-05-08 18:46 38.47082 -12.33757 35668 ft 431 kts 212°
2026-05-08 18:46 38.42027 -12.37846 35665 ft 430 kts 212°
2026-05-08 18:47 38.36971 -12.41929 35685 ft 430 kts 212°
2026-05-08 18:47 38.31902 -12.46016 35675 ft 431 kts 212°
2026-05-08 18:48 38.26814 -12.50111 35666 ft 433 kts 212°
2026-05-08 18:48 38.21746 -12.54183 35658 ft 434 kts 212°
2026-05-08 18:49 38.16639 -12.58280 35670 ft 433 kts 212°
2026-05-08 18:49 38.11537 -12.62366 35671 ft 433 kts 212°
2026-05-08 18:50 38.06423 -12.66455 35670 ft 433 kts 212°
2026-05-08 18:50 38.01351 -12.70504 35670 ft 433 kts 212°
2026-05-08 18:51 37.96255 -12.74565 35672 ft 433 kts 212°
2026-05-08 18:51 37.91189 -12.78594 35671 ft 433 kts 212°
2026-05-08 18:52 37.86075 -12.82656 35671 ft 434 kts 212°
2026-05-08 18:52 37.80983 -12.86694 35669 ft 435 kts 212°
2026-05-08 18:53 37.75839 -12.90766 35671 ft 436 kts 212°
2026-05-08 18:53 37.70690 -12.94835 35668 ft 436 kts 212°
2026-05-08 18:54 37.65568 -12.98876 35668 ft 437 kts 212°
2026-05-08 18:54 37.60534 -13.02841 35668 ft 437 kts 212°
2026-05-08 18:55 37.52792 -13.08927 35670 ft 437 kts 212°
2026-05-08 18:56 37.47626 -13.12979 35672 ft 437 kts 212°
2026-05-08 18:56 37.42454 -13.17029 35671 ft 438 kts 213°
2026-05-08 18:57 37.37306 -13.21055 35673 ft 438 kts 213°
2026-05-08 18:57 37.32117 -13.25106 35676 ft 439 kts 213°
2026-05-08 18:58 37.26919 -13.29157 35676 ft 439 kts 213°
2026-05-08 18:58 37.21707 -13.33211 35680 ft 440 kts 213°
2026-05-08 18:59 37.16537 -13.37227 35666 ft 440 kts 213°
2026-05-08 18:59 37.11331 -13.41265 35680 ft 440 kts 213°
2026-05-08 19:00 37.06120 -13.45299 35677 ft 440 kts 213°
2026-05-08 19:00 37.00908 -13.49327 35688 ft 440 kts 213°
2026-05-08 19:01 36.95700 -13.53348 35690 ft 441 kts 213°
2026-05-08 19:01 36.90475 -13.57374 35685 ft 441 kts 214°
2026-05-08 19:02 36.85273 -13.61376 35689 ft 441 kts 214°
2026-05-08 19:02 36.80038 -13.65398 35689 ft 442 kts 214°
2026-05-08 19:03 36.74792 -13.69420 35687 ft 442 kts 213°
2026-05-08 19:03 36.69577 -13.73410 35691 ft 442 kts 213°
2026-05-08 19:04 36.64321 -13.77426 35687 ft 442 kts 214°
2026-05-08 19:04 36.59080 -13.81425 35692 ft 441 kts 214°
2026-05-08 19:05 36.53883 -13.85387 35689 ft 440 kts 214°
2026-05-08 19:05 36.48654 -13.89366 35690 ft 441 kts 214°
2026-05-08 19:06 36.43411 -13.93349 35695 ft 441 kts 214°
2026-05-08 19:06 36.38167 -13.97326 35684 ft 441 kts 214°
2026-05-08 19:07 36.33086 -14.01173 35684 ft 441 kts 214°
2026-05-08 19:07 36.27839 -14.05140 35695 ft 441 kts 214°
2026-05-08 19:08 36.22596 -14.09098 35694 ft 441 kts 214°
2026-05-08 19:08 36.17373 -14.13035 35704 ft 441 kts 214°
2026-05-08 19:09 36.12127 -14.16981 35697 ft 441 kts 214°
2026-05-08 19:09 36.06887 -14.20918 35707 ft 440 kts 214°
2026-05-08 19:10 36.01645 -14.24850 35705 ft 440 kts 214°
2026-05-08 19:10 35.96423 -14.28761 35707 ft 441 kts 214°
2026-05-08 19:11 35.91171 -14.32689 35707 ft 441 kts 214°
2026-05-08 19:11 35.85948 -14.36588 35695 ft 442 kts 215°
2026-05-08 19:12 35.80688 -14.40508 35706 ft 442 kts 215°
2026-05-08 19:12 35.75426 -14.44425 35713 ft 442 kts 215°
2026-05-08 19:13 35.70164 -14.48335 35712 ft 442 kts 215°
2026-05-08 19:13 35.64900 -14.52240 35715 ft 442 kts 215°
2026-05-08 19:14 35.59630 -14.56144 35696 ft 441 kts 215°
2026-05-08 19:14 35.54371 -14.60032 35714 ft 441 kts 215°
2026-05-08 19:15 35.49114 -14.63915 35719 ft 441 kts 215°
2026-05-08 19:15 35.43881 -14.67774 35721 ft 441 kts 215°
2026-05-08 19:16 35.38613 -14.71653 35722 ft 442 kts 215°
2026-05-08 19:16 35.33332 -14.75535 35695 ft 442 kts 216°
2026-05-08 19:17 35.28047 -14.79413 35714 ft 442 kts 216°
2026-05-08 19:17 35.22811 -14.83249 35721 ft 441 kts 216°
2026-05-08 19:18 35.17527 -14.87116 35722 ft 441 kts 216°
2026-05-08 19:18 35.12248 -14.90973 35725 ft 441 kts 216°
2026-05-08 19:19 35.07007 -14.94795 35717 ft 442 kts 216°
2026-05-08 19:19 35.01732 -14.98638 35730 ft 442 kts 216°
2026-05-08 19:20 34.96615 -15.02360 35732 ft 443 kts 216°
2026-05-08 19:20 34.91299 -15.06220 35734 ft 444 kts 216°
2026-05-08 19:21 34.86014 -15.10052 35734 ft 445 kts 216°
2026-05-08 19:21 34.80671 -15.13921 35736 ft 446 kts 216°
2026-05-08 19:22 34.75340 -15.17773 35730 ft 445 kts 216°
2026-05-08 19:22 34.70045 -15.21595 35738 ft 444 kts 216°
2026-05-08 19:23 34.64725 -15.25429 35745 ft 444 kts 216°
2026-05-08 19:23 34.59408 -15.29255 35744 ft 444 kts 216°
2026-05-08 19:24 34.54099 -15.33070 35748 ft 443 kts 216°
2026-05-08 19:24 34.48792 -15.36877 35744 ft 442 kts 216°
2026-05-08 19:25 34.43523 -15.40651 35758 ft 442 kts 216°
2026-05-08 19:25 34.38235 -15.44434 35751 ft 441 kts 216°
2026-05-08 19:26 34.32939 -15.48218 35384 ft 446 kts 216°
2026-05-08 19:26 34.30261 -15.50130 34815 ft 444 kts 217°
2026-05-08 19:26 34.27598 -15.52028 34180 ft 444 kts 217°
2026-05-08 19:26 34.24932 -15.53926 33438 ft 445 kts 217°
2026-05-08 19:27 34.22271 -15.55820 32676 ft 443 kts 217°
2026-05-08 19:27 34.19619 -15.57706 31929 ft 442 kts 217°
2026-05-08 19:27 34.16974 -15.59585 31198 ft 441 kts 217°
2026-05-08 19:27 34.14331 -15.61462 30452 ft 440 kts 217°
2026-05-08 19:28 34.11731 -15.63307 29675 ft 439 kts 217°
2026-05-08 19:28 34.09098 -15.65175 28731 ft 438 kts 217°
2026-05-08 19:28 34.06471 -15.67037 27952 ft 436 kts 217°
2026-05-08 19:28 34.03880 -15.68869 27368 ft 429 kts 217°
2026-05-08 19:29 34.01316 -15.70680 26795 ft 423 kts 217°
2026-05-08 19:29 33.98808 -15.72452 26203 ft 418 kts 217°
2026-05-08 19:29 33.96317 -15.74212 25580 ft 413 kts 217°
2026-05-08 19:29 33.93831 -15.75972 25072 ft 418 kts 217°
2026-05-08 19:30 33.92151 -15.77165 24692 ft 426 kts 217°
2026-05-08 19:30 33.88750 -15.79571 23915 ft 425 kts 217°
2026-05-08 19:30 33.87038 -15.80775 23518 ft 421 kts 217°
2026-05-08 19:30 33.84524 -15.82541 22857 ft 415 kts 217°
2026-05-08 19:31 33.82081 -15.84256 22234 ft 409 kts 217°
2026-05-08 19:31 33.79647 -15.85967 21675 ft 402 kts 217°
2026-05-08 19:31 33.77251 -15.87651 21109 ft 396 kts 217°
2026-05-08 19:31 33.74893 -15.89310 20530 ft 390 kts 217°
2026-05-08 19:32 33.72563 -15.90949 19983 ft 385 kts 217°
2026-05-08 19:32 33.70265 -15.92564 19438 ft 380 kts 218°
2026-05-08 19:32 33.67996 -15.94155 18891 ft 376 kts 217°
2026-05-08 19:32 33.65761 -15.95739 18374 ft 370 kts 218°
2026-05-08 19:33 33.63590 -15.97370 17817 ft 365 kts 219°
2026-05-08 19:33 33.61467 -15.99006 17248 ft 361 kts 220°
2026-05-08 19:33 33.59511 -16.00522 16739 ft 357 kts 220°
2026-05-08 19:33 33.57423 -16.02140 16214 ft 357 kts 220°
2026-05-08 19:34 33.55340 -16.03748 15687 ft 357 kts 220°
2026-05-08 19:34 33.53221 -16.05384 15166 ft 367 kts 220°
2026-05-08 19:34 33.51054 -16.07051 14623 ft 371 kts 219°
2026-05-08 19:34 33.48884 -16.08710 14074 ft 367 kts 219°
2026-05-08 19:35 33.46739 -16.10343 13524 ft 363 kts 219°
2026-05-08 19:35 33.44623 -16.11953 12941 ft 359 kts 219°
2026-05-08 19:35 33.42528 -16.13548 12385 ft 354 kts 219°
2026-05-08 19:35 33.40465 -16.15117 11833 ft 349 kts 219°
2026-05-08 19:36 33.38429 -16.16667 11346 ft 343 kts 219°
2026-05-08 19:36 33.36429 -16.18189 10872 ft 338 kts 219°
2026-05-08 19:36 33.34487 -16.19662 10732 ft 323 kts 219°
2026-05-08 19:36 33.32650 -16.21054 10609 ft 310 kts 219°
2026-05-08 19:37 33.30860 -16.22412 10478 ft 298 kts 219°
2026-05-08 19:37 33.29135 -16.23721 10353 ft 288 kts 220°
2026-05-08 19:37 33.27474 -16.24982 10233 ft 278 kts 220°
2026-05-08 19:37 33.25875 -16.26197 10119 ft 268 kts 220°
2026-05-08 19:38 33.24326 -16.27373 10009 ft 259 kts 220°
2026-05-08 19:38 33.22827 -16.28511 9915 ft 251 kts 221°
2026-05-08 19:38 33.21374 -16.29614 9748 ft 245 kts 221°
2026-05-08 19:38 33.19958 -16.30692 9492 ft 243 kts 221°
2026-05-08 19:39 33.18537 -16.31772 9226 ft 241 kts 221°
2026-05-08 19:39 33.17121 -16.32847 8970 ft 240 kts 221°
2026-05-08 19:39 33.15720 -16.33910 8715 ft 238 kts 221°
2026-05-08 19:39 33.14322 -16.34969 8450 ft 237 kts 221°
2026-05-08 19:40 33.12926 -16.36026 8199 ft 240 kts 221°
2026-05-08 19:40 33.11498 -16.37109 7932 ft 247 kts 221°
2026-05-08 19:40 33.10030 -16.38221 7674 ft 253 kts 220°
2026-05-08 19:40 33.08540 -16.39346 7391 ft 252 kts 220°
2026-05-08 19:41 33.07061 -16.40460 7124 ft 250 kts 220°
2026-05-08 19:41 33.05594 -16.41567 6852 ft 249 kts 220°
2026-05-08 19:41 33.04156 -16.42652 6617 ft 247 kts 220°
2026-05-08 19:41 33.02707 -16.43746 6354 ft 245 kts 220°
2026-05-08 19:42 33.01270 -16.44830 6086 ft 244 kts 220°
2026-05-08 19:42 32.99852 -16.45901 5823 ft 243 kts 220°
2026-05-08 19:42 32.98429 -16.46975 5559 ft 241 kts 220°
2026-05-08 19:42 32.97016 -16.48041 5302 ft 239 kts 220°
2026-05-08 19:43 32.95619 -16.49092 5050 ft 237 kts 220°
2026-05-08 19:43 32.94250 -16.50120 4952 ft 228 kts 220°
2026-05-08 19:43 32.92922 -16.51125 4737 ft 225 kts 222°
2026-05-08 19:43 32.91728 -16.52283 4496 ft 219 kts 230°
2026-05-08 19:44 32.90609 -16.53514 4257 ft 220 kts 230°
2026-05-08 19:44 32.89484 -16.54747 4174 ft 221 kts 230°
2026-05-08 19:44 32.88328 -16.55979 4067 ft 224 kts 228°
2026-05-08 19:44 32.87178 -16.57155 3961 ft 216 kts 230°
2026-05-08 19:45 32.86114 -16.58362 3847 ft 207 kts 232°
2026-05-08 19:45 32.85106 -16.59547 3764 ft 199 kts 232°
2026-05-08 19:45 32.84134 -16.60685 3626 ft 195 kts 232°
2026-05-08 19:45 32.83169 -16.61814 3460 ft 194 kts 232°
2026-05-08 19:46 32.82195 -16.62952 3209 ft 198 kts 230°
2026-05-08 19:46 32.81200 -16.64114 3008 ft 202 kts 231°
2026-05-08 19:46 32.79208 -16.66438 2568 ft 199 kts 230°
2026-05-08 19:47 32.78221 -16.67591 2325 ft 199 kts 230°
2026-05-08 19:47 32.77238 -16.68740 2072 ft 194 kts 229°
2026-05-08 19:47 32.76297 -16.69836 1814 ft 183 kts 230°
2026-05-08 19:47 32.75423 -16.70857 1574 ft 169 kts 233°
2026-05-08 19:48 32.74613 -16.71805 1370 ft 158 kts 230°
2026-05-08 19:48 32.73861 -16.72676 1180 ft 143 kts 234°
2026-05-08 19:48 32.73178 -16.73483 1009 ft 130 kts 231°
2026-05-08 19:48 32.72559 -16.74207 846 ft 127 kts 230°
2026-05-08 19:49 32.71908 -16.74959 655 ft 139 kts 226°
2026-05-08 19:49 32.71231 -16.75769 401 ft 139 kts 225°
2026-05-08 19:49 32.70529 -16.76576 205 ft 143 kts 227°
2026-05-08 19:49 32.69890 -16.77330 174 ft 109 kts 224°
2026-05-08 19:50 32.69507 -16.77776 173 ft 45 kts 225°
2026-05-08 19:50 32.69404 -16.77895 173 ft 13 kts 223°
2026-05-08 19:50 32.69312 -16.77966 173 ft 15 kts 168°
2026-05-08 19:50 32.69304 -16.77863 173 ft 14 kts 70°
2026-05-08 19:51 32.69356 -16.77784 173 ft 8 kts 41°
2026-05-08 19:51 32.69364 -16.77724 173 ft 8 kts 130°
2026-05-08 19:51 32.69334 -16.77690 173 ft 0 kts 136°